Weather in Tangolunda

Mexico     15°46′30″N   96°05′32″W
temp.,
°C
wind,
m/s
gust,
m/s
humid.,
%
clouds,
%
prec.,
mm/h
press.,
hPa
HPBL,
m
26 september, sun
sun2601:00+26n2276100 0.4 1013137
04:00+26nnw217478 0.0 1011143
07:00+26n227289 0.0 1011126
10:00+28e116356 0.0 1013273
13:00+30s426220 0.0 1013660
16:00+29ssw547012 0.1 1010570
19:00+28sw457434 1.0 1011303
22:00+27wnw338277 1.9 1014237
27 september, mon
mon2701:00+26nnw228241 2.1 1014104
04:00+25nnw227935 0.2 101298
07:00+26n227731 0.4 1013120
10:00+28ene116861 0.0 1014284
13:00+29s326724 0.0 1013715
16:00+29ssw546824 0.3 1010747
19:00+28wsw45748 0.8 1011420
22:00+27wnw337997 0.1 1013248
28 september, tue
tue2801:00+26nw2281100 0.6 1012149
04:00+26nnw127891 0.0 1011118
07:00+26n2278100 0.0 1012138
10:00+28ene2472100 0.1 1014442
13:00+29se4370100 0.2 1012809
16:00+28sse327499 0.1 1009770
19:00+27ssw1179100 0.6 1009406
22:00+27nw218253 0.0 1011211
29 september, wed
wed2901:00+26nw2285100 0.8 1011205
04:00+25nnw228591 0.2 1010139
07:00+25n1183100 0.3 1010160
10:00+27ene227545 0.0 1012422
13:00+28se3273100 0.0 1011760
16:00+28ssw327467 0.4 1008677
19:00+28wsw237993 1.6 1009374
22:00+27wnw3384100 0.1 1011251
30 september, thu
thu3001:00+26wnw338677 1.2 1011154
04:00+26wnw238462 2.5 1009198
07:00+25n118323 2.8 1010138
10:00+28ene227798 0.0 1012480
13:00+29se327136 0.1 1010758
16:00+29ssw326933 0.1 1008775
19:00+28sw237434 0.2 1009376
22:00+27w347927 0.1 1011354